This demonstration page uses our WeatherBlox Daily Observations layout. Learn more.

Left ArrowRight Arrow

38.83388, -104.82136

Hourly Observations for March 29, 2018

Temp ( °F °C ) Dew Point ( °F °C ) Humidity (%) Winds ( mph kmh ) Pressure ( in mb ) Visibility ( mi km ) Precip ( " mm )
12:08 am 00:08 Mostly Cloudy 30 -1 27 -3 86 86 Calm 29.72 1007 10 16 0.00 0.00
12:48 am 00:48 Partly Cloudy 30 -1 27 -3 86 86 SSE 7 11 29.72 1007 10 16 0.00 0.00
12:58 am 00:58 Mostly Clear 30 -1.2 28 -2.5 91 91 S 8 13 29.71 1006 10 16 0.00 0.00
1:58 am 01:58 Mostly Clear 29 -1.9 27 -3 92 92 Calm 29.73 1007 10 16 0.00 0.00
2:58 am 02:58 Clear 28 -2 24 -4.7 82 82 NW 5 7 29.72 1006 10 16 0.00 0.00
3:58 am 03:58 Clear 28 -2.5 23 -5.2 82 82 Calm 29.73 1007 10 16 0.00 0.00
4:58 am 04:58 Clear 28 -2.2 21 -6.1 75 75 Calm 29.73 1007 10 16 0.00 0.00
5:58 am 05:58 Clear 26 -3.1 24 -4.3 92 92 WNW 3 6 29.75 1007 10 16 0.00 0.00
6:58 am 06:58 Sunny 28 -2.1 20 -6.4 73 73 Calm 29.75 1008 10 16 0.00 0.00
7:58 am 07:58 Sunny 30 -0.9 20 -6.4 67 67 Calm 29.75 1007 10 16 0.01 0.25
8:58 am 08:58 Sunny 33 0.7 22 -5.4 64 64 SE 6 9 29.76 1008 10 16 0.02 0.51
9:58 am 09:58 Sunny 38 3.1 29 -1.5 72 72 ESE 7 11 29.75 1008 10 16 0.00 0.00
10:58 am 10:58 Sunny 41 4.9 20 -6.5 44 44 ESE 9 15 29.73 1007 10 16 0.00 0.00
11:58 am 11:58 Mostly Cloudy 43 5.9 20 -6.7 40 40 SE 13 20 29.70 1006 10 16 0.00 0.00
12:58 pm 12:58 Mostly Cloudy 43 5.9 19 -7.5 38 38 SE 12 19 29.71 1006 10 16 0.00 0.00
1:58 pm 13:58 Mostly Cloudy 44 6.6 17 -8.1 34 34 ESE 8 13 29.68 1005 10 16 0.00 0.00
2:58 pm 14:58 Mostly Cloudy 47 8.5 19 -7.4 32 32 ENE 8 13 29.65 1004 10 16 0.00 0.00
3:58 pm 15:58 Mostly Cloudy 46 7.5 16 -8.9 30 30 NNE 5 7 29.70 1006 10 16 0.00 0.00
4:58 pm 16:58 Mostly Cloudy 43 6.1 18 -7.6 37 37 NNE 9 15 29.74 1007 10 16 0.00 0.00
5:58 pm 17:58 Mostly Cloudy 39 4 27 -3 61 61 N 17 28 29.82 1010 10 16 0.00 0.00
6:02 pm 18:02 Mostly Cloudy with Light Rain 37 3 28 -2 70 70 N 17 28 29.82 1010 10 16 0.00 0.00
6:07 pm 18:07 Mostly Cloudy with Light Rain 37 3 28 -2 70 70 NNW 17 28 29.83 1010 10 16 0.00 0.00
6:42 pm 18:42 Mostly Cloudy with Light Snow 34 1 30 -1 87 87 NNW 17 28 29.86 1011 2 3 0.00 0.00
6:58 pm 18:58 Cloudy with Light Snow 33 0.5 30 -0.9 90 90 NNW 15 24 29.85 1011 4 6 0.00 0.00
7:58 pm 19:58 Cloudy with Light Snow 32 -0.2 28 -2.1 87 87 NW 16 26 29.88 1012 10 16 0.00 0.00
8:18 pm 20:18 Cloudy with Light Snow 32 0 28 -2 87 87 NNW 15 24 29.89 1012 10 16 0.00 0.00
8:39 pm 20:39 Cloudy with Light Rain 30 -1 27 -3 86 86 NW 13 20 29.91 1013 10 16 0.00 0.00
8:47 pm 20:47 Mostly Cloudy 30 -1 27 -3 86 86 NW 15 24 29.91 1013 10 16 0.00 0.00
8:58 pm 20:58 Mostly Cloudy 30 -1 27 -2.8 88 88 NNW 13 20 29.93 1013 10 16 0.00 0.00
9:03 pm 21:03 Partly Cloudy 30 -1 27 -3 86 86 N 13 20 29.93 1013 10 16 0.00 0.00
9:58 pm 21:58 Clear 29 -1.5 26 -3.2 88 88 NNW 6 9 29.93 1014 10 16 0.00 0.00
10:18 pm 22:18 Mostly Cloudy 28 -2 27 -3 93 93 NNW 5 7 29.94 1014 10 16 0.00 0.00
10:23 pm 22:23 Partly Cloudy 28 -2 27 -3 93 93 WNW 7 11 29.94 1014 10 16 0.00 0.00
10:58 pm 22:58 Partly Cloudy 30 -1.2 27 -2.8 89 89 SSE 12 19 29.92 1013 10 16 0.00 0.00
11:08 pm 23:08 Mostly Cloudy 30 -1 27 -3 86 86 Calm 29.93 1014 10 16 0.00 0.00
11:23 pm 23:23 Mostly Cloudy 28 -2 27 -3 93 93 Calm 29.93 1014 10 16 0.00 0.00
11:58 pm 23:58 Mostly Cloudy 28 -2.4 26 -3.1 95 95 Calm 29.93 1014 10 16 0.00 0.00

Powered by AerisWeather